Weather History for Tullahoma, TN

Change the Weather History Date:

Friday, November 15, 2013

  Actual Average Record
Temperature  
Mean Temperature 46 °F -  
Max Temperature 53 °F 58 °F 53 °F (2013)
Min Temperature 39 °F 37 °F 21 °F (2014)
Degree Days  
Heating Degree Days 19    
Moisture  
Dew Point 38 °F    
Average Humidity 71    
Maximum Humidity 100    
Minimum Humidity 36    
Precipitation  
Precipitation 0.00 in - - ()
Sea Level Pressure  
Sea Level Pressure 30.17 in    
Wind  
Wind Speed 4 mph (SE)    
Max Wind Speed 8 mph    
Max Gust Speed -    
Visibility 9 miles    
Events      
Averages and records for this station are not official NWS values.
T = Trace of Precipitation, MM = Missing Value Source: NWS Daily Summary

Daily Weather History Graph

Daily Weather History Graph

Search for Another Location

Airport:

Trip Planner

Search our weather history database for the weather conditions in past years. The results will help you decide how hot, cold, wet, or windy it might be!

Date:

Astronomy

Nov. 15, 2013 Rise Set
Actual Time 6:20 AM CST 4:38 PM CST
Civil Twilight 5:53 AM CST 5:05 PM CST
Nautical Twilight 5:22 AM CST 5:36 PM CST
Astronomical Twilight 4:52 AM CST 6:06 PM CST
Moon 3:32 PM CST (11/15) 4:20 AM CST (11/15)
Length of Visible Light 11h 12m
Length of Day
10h 18m
Waxing Gibbous, 96% of the Moon is Illuminated
Nov 15
Waxing Gibbous
Nov 17
Full
Nov 25
Last Quarter
Dec 2
New
Dec 9
First Quarter

Hourly Weather History & Observations

Time (CST) Temp. Windchill Dew Point Humidity Pressure Visibility Wind Dir Wind Speed Gust Speed Precip Events Conditions
12:35 AM 42.8 °F 40.1 °F 17.6 °F 36% 30.21 in 10.0 mi SE 4.6 mph - N/A   Clear
12:55 AM 41.0 °F 39.0 °F 19.4 °F 42% 30.21 in 10.0 mi SE 3.5 mph - N/A   Clear
1:15 AM 42.8 °F - 17.6 °F 36% 30.21 in 10.0 mi Calm Calm - N/A   Clear
1:35 AM 39.2 °F 37.0 °F 21.2 °F 49% 30.21 in 10.0 mi SE 3.5 mph - N/A   Clear
1:55 AM 42.8 °F 41.1 °F 19.4 °F 39% 30.20 in 10.0 mi ESE 3.5 mph - N/A   Clear
2:15 AM 42.8 °F 41.1 °F 21.2 °F 42% 30.20 in 10.0 mi SE 3.5 mph - N/A   Clear
2:35 AM 42.8 °F - 24.8 °F 49% 30.20 in 10.0 mi Calm Calm - N/A   Mostly Cloudy
2:55 AM 44.6 °F 43.1 °F 23.0 °F 43% 30.19 in 10.0 mi SE 3.5 mph - N/A   Mostly Cloudy
3:15 AM 44.6 °F 43.1 °F 26.6 °F 49% 30.20 in 10.0 mi SSE 3.5 mph - N/A   Overcast
3:35 AM 44.6 °F 42.2 °F 26.6 °F 49% 30.20 in 10.0 mi SSE 4.6 mph - N/A   Overcast
3:55 AM 46.4 °F 43.5 °F 26.6 °F 46% 30.20 in 10.0 mi SSE 5.8 mph - N/A   Overcast
4:15 AM 46.4 °F 43.5 °F 26.6 °F 46% 30.21 in 10.0 mi SSE 5.8 mph - N/A   Overcast
4:35 AM 46.4 °F 43.5 °F 28.4 °F 50% 30.21 in 10.0 mi SSE 5.8 mph - N/A   Mostly Cloudy
4:55 AM 46.4 °F 43.5 °F 28.4 °F 50% 30.21 in 10.0 mi SSE 5.8 mph - N/A   Overcast
5:15 AM 48.2 °F - 28.4 °F 46% 30.22 in 10.0 mi SSE 6.9 mph - N/A   Overcast
5:35 AM 48.2 °F - 28.4 °F 46% 30.22 in 10.0 mi SSE 6.9 mph - N/A   Overcast
5:55 AM 48.2 °F - 28.4 °F 46% 30.22 in 10.0 mi SE 4.6 mph - N/A   Overcast
6:15 AM 48.2 °F - 30.2 °F 50% 30.22 in 10.0 mi SSE 3.5 mph - N/A   Overcast
6:35 AM 48.2 °F - 30.2 °F 50% 30.23 in 10.0 mi SSE 5.8 mph - N/A   Overcast
6:55 AM 48.2 °F - 30.2 °F 50% 30.23 in 10.0 mi SE 5.8 mph - N/A   Overcast
7:15 AM 48.2 °F - 30.2 °F 50% 30.23 in 10.0 mi SE 4.6 mph - N/A   Mostly Cloudy
7:35 AM 48.2 °F - 32.0 °F 54% 30.23 in 10.0 mi SSE 5.8 mph - N/A   Mostly Cloudy
7:55 AM 48.2 °F - 32.0 °F 54% 30.23 in 10.0 mi SSE 6.9 mph - N/A   Mostly Cloudy
8:15 AM 50.0 °F - 33.8 °F 54% 30.24 in 10.0 mi SSE 6.9 mph - N/A   Mostly Cloudy
8:35 AM 51.8 °F - 33.8 °F 50% 30.23 in 10.0 mi SE 8.1 mph - N/A   Mostly Cloudy
8:55 AM 51.8 °F - 35.6 °F 54% 30.23 in 10.0 mi SSE 6.9 mph - N/A   Mostly Cloudy
9:15 AM 51.8 °F - 35.6 °F 54% 30.23 in 10.0 mi South 5.8 mph - N/A   Mostly Cloudy
9:35 AM 51.8 °F - 35.6 °F 54% 30.23 in 10.0 mi SSE 6.9 mph - N/A   Mostly Cloudy
9:55 AM 53.6 °F - 35.6 °F 51% 30.23 in 10.0 mi SSE 6.9 mph - N/A   Scattered Clouds
10:15 AM 53.6 °F - 37.4 °F 54% 30.22 in 10.0 mi SSE 8.1 mph - N/A   Partly Cloudy
10:35 AM 53.6 °F - 37.4 °F 54% 30.22 in 10.0 mi SSE 5.8 mph - N/A   Partly Cloudy
10:55 AM 53.6 °F - 37.4 °F 54% 30.21 in 10.0 mi SSE 6.9 mph - N/A   Mostly Cloudy
11:15 AM 53.6 °F - 37.4 °F 54% 30.20 in 10.0 mi SSE 3.5 mph - N/A   Mostly Cloudy
11:35 AM 53.6 °F - 39.2 °F 58% 30.19 in 10.0 mi SSE 3.5 mph - N/A   Partly Cloudy
11:55 AM 53.6 °F - 39.2 °F 58% 30.16 in 10.0 mi SE 3.5 mph - N/A   Partly Cloudy
12:15 PM 51.8 °F - 42.8 °F 71% 30.16 in 10.0 mi ESE 4.6 mph - N/A   Mostly Cloudy
12:35 PM 51.8 °F - 42.8 °F 71% 30.15 in 10.0 mi Calm Calm - N/A   Overcast
12:55 PM 51.8 °F - 44.6 °F 76% 30.15 in 6.0 mi SE 3.5 mph - N/A   Mostly Cloudy
1:15 PM 51.8 °F - 46.4 °F 82% 30.15 in 5.0 mi SSE 4.6 mph - N/A   Overcast
1:35 PM 51.8 °F - 46.4 °F 82% 30.15 in 4.0 mi South 3.5 mph - N/A   Overcast
1:55 PM 50.0 °F - 46.4 °F 87% 30.15 in 4.0 mi Calm Calm - N/A   Overcast
2:15 PM 50.0 °F - 48.2 °F 94% 30.15 in 5.0 mi Calm Calm - N/A   Overcast
2:35 PM 50.0 °F - 48.2 °F 94% 30.13 in 6.0 mi SE 3.5 mph - N/A   Overcast
2:55 PM 50.0 °F - 48.2 °F 94% 30.12 in 7.0 mi SE 4.6 mph - N/A   Mostly Cloudy
3:15 PM 50.0 °F - 48.2 °F 94% 30.11 in 5.0 mi SE 6.9 mph - N/A   Overcast
3:35 PM 50.0 °F - 48.2 °F 94% 30.12 in 10.0 mi Calm Calm - N/A   Overcast
3:55 PM 50.0 °F - 48.2 °F 94% 30.12 in 10.0 mi Calm Calm - N/A   Overcast
4:15 PM 50.0 °F - 48.2 °F 94% 30.11 in 10.0 mi SE 4.6 mph - N/A   Overcast
4:35 PM 50.0 °F - 48.2 °F 94% 30.10 in 10.0 mi SSE 4.6 mph - N/A   Mostly Cloudy
4:55 PM 48.2 °F - 48.2 °F 100% 30.10 in 10.0 mi SE 5.8 mph - N/A   Mostly Cloudy
5:15 PM 48.2 °F - 48.2 °F 100% 30.11 in 10.0 mi SE 6.9 mph - N/A   Overcast
5:35 PM 48.2 °F - 48.2 °F 100% 30.12 in 10.0 mi SE 5.8 mph - N/A   Overcast
5:55 PM 48.2 °F - 48.2 °F 100% 30.12 in 10.0 mi SE 5.8 mph - N/A   Overcast
6:15 PM 48.2 °F - 46.4 °F 93% 30.12 in 10.0 mi SSE 5.8 mph - N/A   Mostly Cloudy
6:35 PM 48.2 °F - 46.4 °F 93% 30.13 in 10.0 mi SSE 3.5 mph - N/A   Mostly Cloudy
6:55 PM 48.2 °F - 46.4 °F 93% 30.14 in 10.0 mi SSE 3.5 mph - N/A   Unknown
7:15 PM 48.2 °F - 46.4 °F 93% 30.13 in 10.0 mi Calm Calm - N/A   Unknown
7:35 PM 48.2 °F - 46.4 °F 93% 30.13 in 10.0 mi Calm Calm - N/A   Unknown
7:55 PM 48.2 °F - 46.4 °F 93% 30.13 in 7.0 mi ESE 3.5 mph - N/A   Scattered Clouds
8:15 PM 48.2 °F - 46.4 °F 93% 30.13 in 7.0 mi ESE 3.5 mph - N/A   Mostly Cloudy
8:35 PM 46.4 °F - 46.4 °F 100% 30.14 in 6.0 mi Calm Calm - N/A   Scattered Clouds
8:55 PM 46.4 °F - 46.4 °F 100% 30.14 in 5.0 mi Calm Calm - N/A   Mostly Cloudy
9:15 PM 46.4 °F 45.2 °F 46.4 °F 100% 30.13 in 5.0 mi SE 3.5 mph - N/A   Mostly Cloudy
9:35 PM 46.4 °F 45.2 °F 46.4 °F 100% 30.14 in 6.0 mi SE 3.5 mph - N/A   Mostly Cloudy
9:55 PM 46.4 °F - 46.4 °F 100% 30.15 in 6.0 mi Calm Calm - N/A   Mostly Cloudy
10:15 PM 48.2 °F - 46.4 °F 93% 30.15 in 6.0 mi Calm Calm - N/A   Mostly Cloudy
10:35 PM 48.2 °F - 46.4 °F 93% 30.16 in 6.0 mi SE 3.5 mph - N/A   Overcast
10:55 PM 48.2 °F - 46.4 °F 93% 30.16 in 5.0 mi SSE 4.6 mph - N/A   Overcast
11:15 PM 48.2 °F - 46.4 °F 93% 30.15 in 5.0 mi SSE 4.6 mph - N/A   Overcast
11:35 PM 48.2 °F - 48.2 °F 100% 30.15 in 5.0 mi SE 3.5 mph - N/A   Overcast
11:55 PM 48.2 °F - 48.2 °F 100% 30.14 in 5.0 mi SSE 4.6 mph - N/A   Overcast